Back to catalog

STARLINK-34190

AliveCommunicationsVLEO
NORAD 64078·PAYLOAD·🇺🇸 United States

Launched May 21, 2025 from Cape Canaveral Space Force Station

Loading…

Next Passes (next 24 hours)

TLE

FreshSource: CelesTrak SupGP

Epoch: Sep 14, 2026, 14:11 UTC

1 64078C 25107Q   26257.59145833 -.00032217  00000+0 -11672-2 0  2572
2 64078  43.0029 214.6794 0001330 267.6727   3.1702 15.27586421    17

Track STARLINK-34190 in real time with AllMySat

Download on the App Store